Location: Unnamed
(51.5169°N, 0.1311°W)
Time: 20:42:37
(UTC+01:00)

Tiros 1 - Pass Details

Date: 13 August 2024
Orbit: 623 x 655 km, 48.4° (Epoch: 16 September)

Event Time Altitude Azimuth Distance (km) Brightness Sun altitude
Rises 07:18:05 0° 253° (WSW) 2,975 9.9 13.3°
Reaches altitude 10° 07:20:27 10° 250° (WSW) 2,066 9.2 13.6°
Maximum altitude 07:25:07 57° 172° (S) 773 7.8 14.3°
Drops below altitude 10° 07:29:47 10° 94° (E) 2,064 12.2 15.1°
Sets 07:32:09 0° 91° (E) 2,972 12.4 15.4°
